When you browse on this site, cookies collect data to enhance your experience and personalize the content and advertising you see.
Visit our Privacy Policy to learn more. By continuing to use the site, you agree to this use of cookies and data.
  • In United Kingdom
  • List of Countries
  • For 7 days
  • Water Temperature
  • Satellite Maps
  • Weather Map
  • Weather Widgets
  • user-avatar
    Login

    Hourly Weather Ayacucho

    Today, 26 April, Friday

    Time Temperature Precipitation Wind Pressure Humidity
    00:00 +10°C° 0 mm 0 mps 541 mmHg 87%
    01:00 +12°C° 0 mm 1 mps 542 mmHg 86%
    02:00 +11°C° 0 mm 1 mps 541 mmHg 87%
    03:00 +11°C° 0 mm 1 mps 541 mmHg 87%
    04:00 +11°C° 0 mm 1 mps 541 mmHg 88%
    05:00 +12°C° 0 mm 1 mps 541 mmHg 83%
    06:00 +13°C° 0 mm 1 mps 542 mmHg 79%
    07:00 +14°C° 0 mm 1 mps 543 mmHg 74%
    08:00 +16°C° 0 mm 1 mps 544 mmHg 67%
    09:00 +19°C° 0 mm 1 mps 545 mmHg 60%
    10:00 +19°C° 0 mm 2 mps 545 mmHg 53%
    11:00 +20°C° 0.1 mm 2 mps 545 mmHg 50%
    12:00 +21°C° 0.1 mm 2 mps 545 mmHg 48%
    13:00 +22°C° 0.1 mm 3 mps 545 mmHg 45%
    14:00 +22°C° 0.4 mm 3 mps 544 mmHg 47%
    15:00 +21°C° 0.4 mm 3 mps 544 mmHg 49%
    16:00 +21°C° 0.4 mm 3 mps 543 mmHg 52%
    17:00 +18°C° 0.4 mm 2 mps 543 mmHg 60%
    18:00 +16°C° 0.4 mm 2 mps 542 mmHg 69%
    19:00 +14°C° 0.4 mm 1 mps 542 mmHg 77%
    20:00 +13°C° 0.2 mm 1 mps 542 mmHg 80%
    21:00 +13°C° 0.2 mm 1 mps 542 mmHg 83%
    22:00 +11°C° 0.2 mm 0 mps 542 mmHg 86%
    23:00 +11°C° 0 mm 0 mps 541 mmHg 87%

    Tomorrow, 27 April, Saturday

    Time Temperature Precipitation Wind Pressure Humidity
    00:00 +10°C° 0 mm 0 mps 541 mmHg 88%
    01:00 +10°C° 0 mm 0 mps 540 mmHg 89%
    02:00 +10°C° 0.1 mm 0 mps 540 mmHg 89%
    03:00 +9°C° 0.1 mm 0 mps 540 mmHg 89%
    04:00 +9°C° 0.1 mm 0 mps 539 mmHg 89%
    05:00 +10°C° 0 mm 0 mps 540 mmHg 86%
    06:00 +12°C° 0 mm 0 mps 541 mmHg 83%
    07:00 +13°C° 0 mm 0 mps 542 mmHg 80%
    08:00 +15°C° 0 mm 1 mps 543 mmHg 71%
    09:00 +18°C° 0 mm 1 mps 544 mmHg 63%
    10:00 +20°C° 0 mm 1 mps 545 mmHg 55%
    11:00 +20°C° 0 mm 2 mps 545 mmHg 52%
    12:00 +21°C° 0 mm 2 mps 544 mmHg 48%
    13:00 +23°C° 0 mm 2 mps 544 mmHg 45%
    14:00 +21°C° 0.2 mm 3 mps 543 mmHg 47%
    15:00 +21°C° 0.2 mm 3 mps 543 mmHg 49%
    16:00 +20°C° 0.2 mm 3 mps 542 mmHg 52%
    17:00 +18°C° 0.1 mm 2 mps 541 mmHg 61%
    18:00 +16°C° 0.1 mm 2 mps 541 mmHg 71%
    19:00 +13°C° 0.1 mm 1 mps 540 mmHg 81%
    20:00 +13°C° 0 mm 1 mps 540 mmHg 83%
    21:00 +12°C° 0 mm 1 mps 541 mmHg 85%
    22:00 +12°C° 0 mm 1 mps 541 mmHg 87%
    23:00 +11°C° 0 mm 1 mps 541 mmHg 89%

    Day after tomorrow, 28 April, Sunday

    Time Temperature Precipitation Wind Pressure Humidity
    00:00 +10°C° 0 mm 0 mps 540 mmHg 90%
    01:00 +10°C° 0 mm 0 mps 540 mmHg 91%
    02:00 +10°C° 0 mm 0 mps 539 mmHg 91%
    03:00 +10°C° 0 mm 0 mps 539 mmHg 90%
    04:00 +9°C° 0 mm 0 mps 539 mmHg 90%
    05:00 +11°C° 0 mm 0 mps 540 mmHg 87%
    06:00 +12°C° 0 mm 0 mps 541 mmHg 83%
    07:00 +13°C° 0 mm 0 mps 542 mmHg 80%
    08:00 +15°C° 0 mm 1 mps 543 mmHg 72%
    09:00 +18°C° 0 mm 1 mps 544 mmHg 64%
    10:00 +18°C° 0 mm 2 mps 544 mmHg 56%
    11:00 +19°C° 0 mm 2 mps 544 mmHg 53%
    12:00 +20°C° 0 mm 2 mps 544 mmHg 50%
    13:00 +21°C° 0 mm 3 mps 543 mmHg 48%
    14:00 +21°C° 0.1 mm 3 mps 543 mmHg 49%
    15:00 +20°C° 0.1 mm 3 mps 543 mmHg 50%
    16:00 +20°C° 0.1 mm 3 mps 542 mmHg 51%
    17:00 +18°C° 0 mm 3 mps 542 mmHg 61%
    18:00 +15°C° 0 mm 2 mps 541 mmHg 71%
    19:00 +13°C° 0 mm 1 mps 540 mmHg 82%
    20:00 +12°C° 0 mm 1 mps 540 mmHg 83%
    21:00 +12°C° 0 mm 1 mps 541 mmHg 84%
    22:00 +12°C° 0 mm 1 mps 541 mmHg 85%
    23:00 +12°C° 0 mm 1 mps 541 mmHg 85%

    29 April, Monday

    Time Temperature Precipitation Wind Pressure Humidity
    00:00 +10°C° 0 mm 0 mps 540 mmHg 86%
    01:00 +10°C° 0 mm 0 mps 540 mmHg 86%
    02:00 +10°C° 0 mm 0 mps 540 mmHg 87%
    03:00 +10°C° 0 mm 0 mps 539 mmHg 87%
    04:00 +9°C° 0 mm 0 mps 539 mmHg 88%
    05:00 +10°C° 0.1 mm 0 mps 540 mmHg 84%
    06:00 +11°C° 0.1 mm 0 mps 541 mmHg 81%
    07:00 +12°C° 0.1 mm 0 mps 542 mmHg 77%
    08:00 +15°C° 0.1 mm 1 mps 543 mmHg 70%
    09:00 +16°C° 0.1 mm 1 mps 543 mmHg 63%
    10:00 +18°C° 0.1 mm 2 mps 544 mmHg 56%
    11:00 +19°C° 0.2 mm 2 mps 544 mmHg 54%
    12:00 +19°C° 0.2 mm 2 mps 543 mmHg 53%
    13:00 +20°C° 0.2 mm 3 mps 543 mmHg 51%
    14:00 +19°C° 0.1 mm 3 mps 543 mmHg 54%
    15:00 +19°C° 0.1 mm 3 mps 542 mmHg 56%
    16:00 +18°C° 0.1 mm 2 mps 542 mmHg 59%
    17:00 +17°C° 0.2 mm 2 mps 541 mmHg 67%
    18:00 +15°C° 0.2 mm 1 mps 541 mmHg 75%
    19:00 +13°C° 0.2 mm 0 mps 541 mmHg 83%
    20:00 +13°C° 0.2 mm 0 mps 541 mmHg 84%
    21:00 +13°C° 0.2 mm 0 mps 542 mmHg 85%
    22:00 +14°C° 0.2 mm 1 mps 542 mmHg 86%
    23:00 +12°C° 0.1 mm 0 mps 542 mmHg 87%

    30 April, Tuesday

    Time Temperature Precipitation Wind Pressure Humidity
    00:00 +12°C° 0.1 mm 0 mps 541 mmHg 89%
    01:00 +12°C° 0.1 mm 0 mps 541 mmHg 90%
    02:00 +11°C° 0.1 mm 0 mps 540 mmHg 90%
    03:00 +11°C° 0.1 mm 0 mps 540 mmHg 90%
    04:00 +11°C° 0.1 mm 0 mps 540 mmHg 90%
    05:00 +12°C° 0 mm 0 mps 541 mmHg 87%
    06:00 +13°C° 0 mm 0 mps 542 mmHg 84%
    07:00 +13°C° 0 mm 0 mps 542 mmHg 80%
    08:00 +16°C° 0 mm 1 mps 543 mmHg 72%
    09:00 +18°C° 0 mm 1 mps 544 mmHg 63%
    10:00 +19°C° 0 mm 2 mps 544 mmHg 55%
    11:00 +19°C° 0 mm 2 mps 544 mmHg 52%
    12:00 +20°C° 0 mm 3 mps 544 mmHg 50%
    13:00 +21°C° 0 mm 3 mps 543 mmHg 47%
    14:00 +21°C° 0.2 mm 3 mps 543 mmHg 49%
    15:00 +20°C° 0.2 mm 3 mps 543 mmHg 51%
    16:00 +20°C° 0.2 mm 3 mps 542 mmHg 53%
    17:00 +18°C° 0.4 mm 2 mps 542 mmHg 62%
    18:00 +16°C° 0.4 mm 2 mps 542 mmHg 70%
    19:00 +14°C° 0.4 mm 1 mps 541 mmHg 78%
    20:00 +14°C° 0.5 mm 1 mps 542 mmHg 79%
    21:00 +14°C° 0.5 mm 1 mps 542 mmHg 81%
    22:00 +13°C° 0.5 mm 0 mps 542 mmHg 82%
    23:00 +12°C° 0.1 mm 0 mps 542 mmHg 84%

    1 May, Wednesday

    Time Temperature Precipitation Wind Pressure Humidity
    00:00 +12°C° 0.1 mm 0 mps 541 mmHg 87%
    01:00 +11°C° 0.1 mm 0 mps 541 mmHg 89%
    02:00 +11°C° 0 mm 0 mps 540 mmHg 89%
    03:00 +10°C° 0 mm 0 mps 540 mmHg 89%
    04:00 +10°C° 0 mm 0 mps 540 mmHg 89%
    05:00 +12°C° 0 mm 1 mps 541 mmHg 86%
    06:00 +13°C° 0 mm 1 mps 542 mmHg 83%
    07:00 +13°C° 0 mm 1 mps 542 mmHg 80%
    08:00 +15°C° 0 mm 1 mps 543 mmHg 73%
    09:00 +16°C° 0 mm 2 mps 544 mmHg 67%
    10:00 +17°C° 0 mm 2 mps 544 mmHg 61%
    11:00 +18°C° 0 mm 3 mps 544 mmHg 60%
    12:00 +18°C° 0 mm 3 mps 543 mmHg 59%
    13:00 +18°C° 0 mm 3 mps 543 mmHg 58%
    14:00 +18°C° 0.1 mm 3 mps 543 mmHg 59%
    15:00 +17°C° 0.1 mm 3 mps 542 mmHg 61%
    16:00 +17°C° 0.1 mm 3 mps 542 mmHg 63%
    17:00 +15°C° 0.1 mm 2 mps 541 mmHg 70%
    18:00 +14°C° 0.1 mm 2 mps 541 mmHg 77%
    19:00 +12°C° 0.1 mm 1 mps 541 mmHg 85%
    20:00 +12°C° 0 mm 1 mps 541 mmHg 85%
    21:00 +12°C° 0 mm 1 mps 542 mmHg 86%
    22:00 +12°C° 0 mm 1 mps 542 mmHg 86%
    23:00 +12°C° 0.1 mm 1 mps 542 mmHg 86%
    Show more